DW2180 Weather Reports


Display with metric or nautical units.
time (UTC)temp
F
wind
direction
speed
MPH
gust
MPH
rain 1hr
in
rain 24hr
in
rain mn
in
humidity
%
barometer
mb
20260504150929 65 275 4.0 7.0 0.00 0.00 0.00 42 1012.7
20260504140935 61 204 4.0 8.0 0.00 0.00 0.00 50 1013.0
20260504081938 34 223 0.0 0.0 0.00 0.00 0.00 93 1013.6
20260504045934 36 223 0.0 0.0 0.00 0.00 0.00 91 1013.2
20260504044944 36 223 0.0 0.0 0.00 0.00 0.00 91 1013.3
20260504043933 36 223 0.0 0.0 0.00 0.00 0.00 91 1013.3
20260504042942 36 223 0.0 0.0 0.00 0.00 0.00 90 1013.3
20260504041932 36 223 0.0 0.0 0.00 0.00 0.00 90 1013.2
20260504040941 37 223 0.0 0.0 0.00 0.00 0.00 89 1013.1
20260504035930 37 223 0.0 0.0 0.00 0.00 0.00 89 1013.0
20260504034940 37 223 0.0 0.0 0.00 0.00 0.00 89 1012.9
20260504033929 37 223 0.0 0.0 0.00 0.00 0.00 89 1012.8
20260504032942 38 223 0.0 0.0 0.00 0.00 0.00 88 1012.8
20260504031931 38 223 0.0 0.0 0.00 0.00 0.00 88 1012.9
20260504030940 38 223 0.0 0.0 0.00 0.00 0.00 87 1012.7
20260504025929 39 223 0.0 0.0 0.00 0.00 0.00 87 1012.7
20260504024938 39 223 0.0 0.0 0.00 0.00 0.00 86 1012.7
20260504023927 40 223 0.0 0.0 0.00 0.00 0.00 86 1012.7
20260504022936 40 223 0.0 0.0 0.00 0.00 0.00 84 1012.7
20260504021926 40 223 0.0 0.0 0.00 0.00 0.00 83 1012.6
20260504015933 42 223 0.0 0.0 0.00 0.00 0.00 81 1012.8
20260504014943 42 223 0.0 0.0 0.00 0.00 0.00 80 1012.7
20260504013934 43 223 0.0 0.0 0.00 0.00 0.00 79 1012.6
20260504011934 44 223 0.0 0.0 0.00 0.00 0.00 78 1012.3
20260504010943 45 223 0.0 0.0 0.00 0.00 0.00 74 1012.2
20260504005933 46 223 0.0 0.0 0.00 0.00 0.00 71 1012.0
20260504004942 47 223 0.0 0.0 0.00 0.00 0.00 67 1011.9
20260504003931 48 223 0.0 0.0 0.00 0.00 0.00 64 1011.8
20260504002940 50 223 0.0 0.0 0.00 0.00 0.00 60 1011.7
20260504001933 52 223 0.0 0.0 0.00 0.00 0.00 55 1011.5
20260504000942 54 223 0.0 0.0 0.00 0.00 0.00 47 1011.4
20260503235930 55 223 0.0 2.0 0.00 0.00 0.00 46 1011.4
20260503234939 56 223 0.0 2.0 0.00 0.00 0.00 41 1011.2
20260503233928 57 256 1.0 6.0 0.00 0.00 0.00 39 1011.1
20260503232937 58 215 1.0 5.0 0.00 0.00 0.00 37 1011.0
20260503231926 58 326 1.0 6.0 0.00 0.00 0.00 35 1011.0
20260503230936 58 227 2.0 8.0 0.00 0.00 0.00 33 1011.0
20260503225929 59 298 4.0 8.0 0.00 0.00 0.00 33 1010.9
20260503224938 60 214 1.0 9.0 0.00 0.00 0.00 33 1010.9
20260503223927 59 287 2.0 7.0 0.00 0.00 0.00 32 1010.8
20260503222936 59 311 5.0 8.0 0.00 0.00 0.00 33 1010.8
20260503220938 60 298 2.0 6.0 0.00 0.00 0.00 34 1010.7
20260503215927 60 212 0.0 5.0 0.00 0.00 0.00 34 1010.6
20260503214937 59 186 2.0 7.0 0.00 0.00 0.00 33 1010.6
20260503213945 59 256 1.0 7.0 0.00 0.00 0.00 32 1010.5
20260503212933 60 331 3.0 9.0 0.00 0.00 0.00 31 1010.6
20260503210938 61 306 2.0 7.0 0.00 0.00 0.00 32 1010.7
20260503205927 61 286 3.0 7.0 0.00 0.00 0.00 32 1010.6
20260503204936 60 330 2.0 7.0 0.00 0.00 0.00 34 1010.6
20260503203946 60 227 5.0 9.0 0.00 0.00 0.00 34 1010.8
20260503202934 60 337 5.0 12.0 0.00 0.00 0.00 34 1010.8
20260503201944 59 353 4.0 9.0 0.00 0.00 0.00 34 1011.0
20260503200934 59 281 2.0 10.0 0.00 0.00 0.00 34 1011.1
20260503195944 59 2 3.0 11.0 0.00 0.00 0.00 32 1011.1
20260503194932 58 6 3.0 13.0 0.00 0.00 0.00 35 1011.1
20260503193926 58 314 3.0 6.0 0.00 0.00 0.00 36 1011.1
20260503191928 58 279 4.0 12.0 0.00 0.00 0.00 36 1011.5
20260503190937 57 298 4.0 9.0 0.00 0.00 0.00 38 1011.4
20260503185926 57 360 5.0 13.0 0.00 0.00 0.00 34 1011.3
20260503184935 57 335 3.0 14.0 0.00 0.00 0.00 38 1011.5
20260503183944 57 313 3.0 10.0 0.00 0.00 0.00 36 1011.4
20260503182934 57 283 2.0 9.0 0.00 0.00 0.00 37 1011.9
20260503175935 56 299 3.0 7.0 0.00 0.00 0.00 38 1011.6
20260503174944 55 314 3.0 10.0 0.00 0.00 0.00 40 1011.8
20260503172944 55 285 5.0 11.0 0.00 0.00 0.00 40 1012.2
20260503171932 54 312 2.0 10.0 0.00 0.00 0.00 39 1012.1
20260503170941 53 210 4.0 8.0 0.00 0.00 0.00 41 1012.1